Dewpoint
73 73 75 75 75 75 75 75 75 75 75 75 75 75 75 75 75 75 75 75 74 74 74 74 74 74 74 73 73 73 73 73 73 72 72 71 70 70 70 69 70 71 71 71 71 71 71 71 70 69 69 69 69 68 69 68 68 69 69 69 69 69 69 68 67 67 67 66 66 66 66 67 69 69 68 67 66 66 66 65 65 63 63 63 65
72 73 74 75 75 75 75 75 75 75 75 75 75 75 74 75 75 75 75 75 74 74 74 74 74 74 74 73 73 73 73 73 73 72 72 71 69 69 70 70 70 71 71 71 71 71 71 71 70 70 69 69 68 68 68 68 68 68 69 70 70 69 68 67 67 67 66 66 66 66 66 67 67 67 68 67 66 66 65 65 65 63 62 65 65
72 73 74 75 75 75 75 75 75 75 75 75 75 75 75 75 75 75 75 75 74 74 74 74 74 74 74 73 73 73 73 73 73 72 72 71 70 69 70 70 70 71 71 71 71 71 70 71 70 70 69 69 68 67 68 68 68 68 69 69 69 69 68 68 68 67 66 67 66 66 66 66 65 67 67 66 65 65 65 65 64 64 62 65 65
72 73 74 75 75 75 75 75 75 75 75 75 75 75 75 75 75 75 75 74 74 74 74 74 74 74 74 73 73 73 73 73 73 72 72 71 70 70 70 69 70 71 71 71 71 70 70 70 70 70 69 69 68 67 67 68 68 68 68 69 69 69 69 69 68 67 66 65 65 65 65 63 64 65 66 65 65 65 65 65 65 65 64 65 64
72 72 73 73 74 75 75 75 75 75 75 75 75 75 75 74 74 74 75 74 74 74 74 74 74 74 74 73 73 73 73 73 73 72 72 71 71 70 70 69 69 70 71 71 71 70 70 70 70 70 69 69 69 68 66 67 68 68 69 69 69 70 69 69 68 67 66 65 65 64 62 63 62 65 65 65 65 64 64 64 64 64 64 65 64
71 72 72 73 74 75 75 75 75 75 75 75 75 75 74 74 74 74 74 74 74 74 74 74 74 74 74 73 72 73 73 73 72 72 72 72 71 71 70 69 69 69 69 71 70 70 70 70 70 70 69 69 68 68 66 67 67 68 68 68 69 69 69 69 68 67 66 65 65 63 63 64 64 63 64 65 65 64 64 64 64 65 64 64 64
71 72 72 73 73 74 74 75 75 75 74 74 74 74 74 74 74 74 74 74 74 74 74 74 74 74 73 73 72 72 72 73 72 72 72 72 71 71 70 69 69 69 67 70 70 70 69 69 69 70 70 69 69 68 66 67 67 68 68 68 69 69 69 69 69 68 69 68 64 63 63 64 63 63 65 65 65 63 63 64 64 64 64 64 64
71 71 72 73 73 74 74 75 75 74 74 74 74 74 74 74 74 74 74 74 74 74 74 74 74 74 73 73 73 72 72 72 72 72 72 72 71 71 70 70 70 69 68 69 70 69 69 69 69 70 70 69 69 68 66 66 67 68 68 68 68 68 70 70 69 69 69 65 64 62 63 64 64 63 65 65 65 65 65 64 64 65 64 64 63
70 70 72 72 73 74 74 74 74 75 74 74 74 74 74 74 73 73 73 73 74 74 74 74 74 74 73 73 73 73 72 72 72 72 72 72 71 71 71 71 71 71 71 71 71 70 69 69 69 70 69 69 68 67 66 66 66 67 67 67 68 68 69 69 68 69 68 65 62 63 63 63 64 65 65 65 65 65 65 65 66 64 63 63 63
70 71 72 72 72 73 74 74 74 75 75 74 74 73 73 73 73 73 73 73 73 74 74 74 74 73 73 73 72 72 72 72 72 71 72 72 71 72 72 72 72 72 72 71 71 71 70 69 69 69 69 69 69 68 68 67 67 67 68 68 68 68 68 68 68 68 67 62 62 63 64 65 63 63 65 66 65 64 65 66 65 63 63 64 64
70 71 71 71 71 72 73 73 74 74 75 74 74 74 73 73 73 73 73 73 73 74 73 73 73 73 73 73 72 72 72 72 72 72 72 72 72 72 72 72 72 72 71 70 70 70 70 70 69 69 70 70 69 69 68 68 68 67 68 68 68 67 66 68 67 62 63 63 64 64 66 67 64 64 66 66 66 65 65 65 65 63 63 63 63
70 70 70 71 72 72 72 72 73 74 74 74 74 73 73 73 72 72 73 73 73 73 73 73 73 73 73 72 72 72 72 71 71 72 72 71 72 72 72 72 72 72 71 71 70 70 70 70 70 70 70 70 69 69 69 68 68 67 67 68 68 67 67 66 65 63 62 62 63 64 64 64 64 64 65 66 66 66 65 64 63 63 63 63 63
69 70 70 70 70 71 71 72 72 72 73 73 74 73 73 73 72 72 72 71 71 72 73 73 73 73 73 72 73 72 72 73 72 72 71 72 72 72 72 72 72 71 71 70 69 69 69 69 69 69 70 70 69 69 69 68 68 67 67 67 67 66 67 67 64 62 61 61 62 63 63 64 64 66 66 66 65 65 64 64 64 63 64 63 63
69 69 69 69 69 71 71 71 71 72 72 72 73 73 73 73 72 72 71 71 72 71 72 73 73 73 73 73 73 73 73 72 72 72 71 72 72 72 72 71 71 70 70 70 69 69 69 69 69 69 69 69 69 68 68 68 68 67 67 67 67 67 66 64 62 60 61 62 63 63 64 65 65 67 66 65 65 65 65 64 64 64 63 63 62
68 69 69 69 70 70 71 70 71 71 72 72 72 72 72 73 72 72 72 73 73 73 73 73 73 73 73 73 73 72 72 72 72 72 71 72 72 72 71 71 71 70 70 70 70 69 69 69 69 69 69 69 69 68 68 68 67 67 68 67 66 67 67 64 61 59 62 63 63 64 64 65 67 67 66 66 65 65 64 64 63 62 62 62 62
68 68 69 69 69 70 69 70 70 71 71 72 72 72 73 72 72 72 72 73 72 73 73 73 73 72 72 72 72 72 72 72 72 72 72 72 72 71 71 71 71 71 71 70 70 69 69 69 69 69 69 69 69 68 68 68 68 68 66 66 67 66 67 66 63 60 62 62 62 63 64 65 68 67 66 65 65 63 64 63 63 62 62 62 62
67 68 68 68 69 69 69 68 70 71 71 71 72 72 72 72 72 72 73 73 73 72 73 73 72 72 72 72 72 72 72 72 72 72 72 72 72 71 71 71 71 71 70 70 70 69 69 69 69 69 69 69 68 68 68 68 67 66 66 66 67 67 67 68 60 61 62 62 62 63 65 65 66 66 66 65 64 64 63 63 63 62 62 62 62
66 67 67 67 67 68 68 68 69 68 70 71 71 72 72 72 72 72 72 72 72 72 72 72 72 72 72 72 72 72 72 72 72 72 72 71 71 71 71 71 71 70 70 70 70 69 69 68 68 69 69 69 69 68 68 67 67 67 67 67 68 68 68 68 60 62 62 63 62 64 65 67 67 65 65 65 64 64 63 62 62 61 61 61 61
66 66 66 66 67 68 68 68 69 68 69 69 70 71 72 72 72 72 72 72 72 72 72 72 72 72 72 72 72 72 72 72 72 71 71 70 71 71 71 71 70 70 69 69 70 69 69 68 68 69 69 69 68 68 68 67 67 67 67 67 68 68 67 64 61 61 62 62 63 63 64 67 66 65 65 65 64 63 62 61 61 61 61 61 61
62 65 66 67 67 67 68 69 69 69 70 70 70 70 72 72 72 72 72 71 71 70 72 72 72 72 72 72 72 72 72 71 71 71 71 71 70 70 71 70 70 69 69 69 69 69 69 68 69 69 69 69 68 68 68 67 67 67 68 68 68 68 63 62 61 61 61 62 63 64 66 67 66 65 65 65 64 62 62 62 61 61 61 61 60
59 60 63 65 67 67 68 68 69 69 70 70 70 70 71 72 72 72 72 72 71 71 69 72 72 72 72 72 70 71 70 70 70 70 71 70 70 70 71 70 70 70 70 70 69 69 68 69 69 69 69 68 68 68 68 67 68 67 68 68 68 64 62 62 61 62 62 63 64 64 67 67 65 65 65 64 63 62 62 62 61 61 61 61 60
44 44 53 60 63 65 66 67 68 69 69 70 70 71 71 71 71 71 71 71 72 72 71 71 72 71 72 71 70 71 70 70 69 71 70 70 70 70 70 69 70 70 69 69 69 69 69 69 69 69 69 68 68 66 66 68 68 68 67 68 65 64 62 62 60 60 62 62 64 66 67 67 66 66 65 64 62 61 62 62 61 61 61 61 61
44 47 48 49 53 62 65 66 67 68 68 69 70 70 70 70 71 71 71 72 71 72 70 70 70 70 71 70 70 69 68 70 69 70 69 70 70 70 70 69 70 69 69 69 69 69 69 69 69 69 69 69 66 64 64 64 65 67 67 66 63 64 63 62 60 60 61 62 62 66 67 67 66 66 65 64 62 62 63 62 61 60 61 61 61
47 47 49 54 52 53 63 66 67 67 68 68 69 69 69 69 68 68 69 69 69 71 69 68 68 69 69 69 68 69 68 69 70 69 69 68 69 70 70 70 70 70 69 69 68 69 69 68 68 68 68 68 65 64 65 64 64 64 64 63 63 64 63 62 59 59 61 64 63 66 66 66 66 65 65 64 62 63 62 62 61 61 61 60 60
46 46 46 52 49 53 57 65 66 67 67 68 68 68 68 68 68 68 68 68 68 68 68 67 66 66 65 67 68 68 67 67 67 68 68 68 68 69 69 69 68 68 69 67 67 67 67 65 65 66 63 63 63 63 62 64 63 64 63 64 64 63 62 61 59 60 61 62 64 66 66 66 66 64 64 64 63 62 62 62 61 61 61 60 61
54 45 46 46 47 47 50 55 65 67 67 67 67 68 67 67 67 68 67 67 67 68 67 67 67 67 68 69 68 67 67 66 66 66 66 67 66 66 67 69 68 68 67 66 66 66 65 63 63 63 63 62 61 61 60 63 63 63 63 63 63 62 61 60 59 60 61 63 65 67 66 66 65 63 63 63 63 62 62 62 62 61 60 60 61
46 45 44 47 49 47 49 52 54 64 67 68 67 67 66 66 66 66 65 66 67 67 67 66 66 67 68 68 67 66 66 66 65 66 66 66 66 66 67 67 67 67 67 65 66 65 65 63 62 61 61 61 61 60 60 62 62 62 61 61 61 61 62 59 59 60 62 63 65 66 66 66 65 63 62 63 62 62 62 62 63 61 60 60 60
45 48 46 45 47 48 50 51 55 61 66 66 66 66 66 66 67 66 65 69 66 65 66 67 67 66 67 67 67 66 66 66 66 66 66 66 66 67 67 66 66 66 66 64 64 64 64 63 61 60 60 60 60 60 59 61 62 61 60 61 61 61 60 59 59 60 61 63 64 66 66 66 66 65 63 62 62 63 62 63 62 62 61 59 58
45 47 48 43 45 51 53 54 53 54 60 65 64 65 66 66 65 65 66 68 64 64 65 66 66 67 67 66 67 66 65 66 66 66 66 66 66 67 67 67 65 63 65 64 62 63 62 62 61 60 60 59 60 60 57 61 61 61 60 60 60 59 60 58 59 59 61 62 63 65 66 65 65 65 64 63 62 62 62 64 63 62 61 59 60
50 51 49 49 47 48 51 53 55 53 57 60 62 62 64 64 64 64 65 65 63 63 63 64 66 66 66 67 68 66 66 65 66 66 66 66 66 66 67 67 67 66 67 63 62 62 60 61 61 60 59 59 59 59 56 58 59 58 58 59 60 59 61 58 59 59 60 62 63 64 66 65 65 65 64 64 62 62 62 64 64 61 61 61 61
49 46 47 50 53 50 51 51 52 58 55 54 57 59 61 61 62 63 61 60 62 62 63 63 64 66 66 67 68 68 66 66 66 66 66 66 66 66 66 67 67 67 67 66 66 65 62 62 62 61 61 60 58 57 54 56 55 56 57 56 60 59 60 60 59 59 60 61 62 64 64 65 65 64 64 64 64 62 63 63 63 62 60 61 61
49 50 51 51 52 51 52 54 54 56 53 53 54 53 55 59 62 61 59 61 62 61 61 64 66 64 66 67 67 67 66 66 66 67 66 66 66 67 67 66 66 67 67 67 66 67 64 62 61 61 62 62 60 56 55 54 54 54 55 56 59 58 58 60 57 60 60 60 61 63 63 63 65 64 64 64 64 64 63 63 64 63 61 61 61
51 51 52 52 51 51 49 51 52 52 50 52 51 50 53 52 54 54 60 63 62 60 61 61 64 64 65 66 66 66 66 66 66 66 66 66 66 66 66 67 67 68 67 67 66 67 65 64 62 61 61 61 61 56 57 58 55 55 54 54 57 58 57 60 57 60 60 60 60 61 62 62 63 64 64 65 64 65 65 64 63 63 61 61 60
48 51 52 53 54 54 55 54 52 53 55 52 50 48 51 53 53 52 57 60 60 59 60 57 60 62 65 66 65 67 67 66 66 66 66 66 66 66 66 66 67 67 67 66 66 66 65 64 63 61 62 61 60 56 57 55 55 55 55 55 55 57 59 59 59 59 61 61 60 61 61 62 62 62 63 65 65 64 64 65 65 64 62 61 60
50 51 50 51 53 53 53 54 54 50 51 52 53 54 51 50 51 52 52 56 60 58 58 56 57 59 63 63 62 62 65 66 66 66 66 65 65 65 66 66 67 66 66 66 66 66 66 64 63 63 61 61 60 59 56 54 53 52 53 55 53 58 60 59 60 59 61 61 61 61 61 62 62 61 62 62 65 64 64 65 66 65 63 61 61
50 51 51 52 51 53 53 51 52 53 53 53 53 51 51 53 55 61 54 55 56 56 52 54 57 60 63 63 63 64 64 65 65 65 66 66 66 65 65 66 67 66 67 67 67 66 66 66 65 63 62 59 59 58 57 54 54 54 54 55 56 60 60 60 60 60 60 61 61 62 61 62 61 61 62 61 61 63 64 64 65 65 64 63 61
50 49 49 50 52 54 54 52 52 53 54 54 54 54 54 53 54 53 52 53 50 50 53 58 57 57 58 59 60 61 62 65 66 66 66 66 66 65 66 66 67 67 67 66 65 65 66 67 66 65 63 60 58 57 56 55 54 54 53 56 55 57 59 59 60 60 59 59 59 62 63 62 62 64 62 60 60 61 63 64 64 64 64 64 62
49 48 50 50 50 51 51 54 55 55 55 54 53 54 55 54 55 55 57 51 52 54 55 51 56 57 57 58 58 61 62 62 64 65 65 65 65 65 65 66 67 66 66 66 65 65 65 65 66 66 65 62 58 58 58 58 60 56 54 56 54 56 57 59 60 61 60 59 58 58 62 63 62 62 61 60 60 60 61 63 64 64 64 63 63
48 49 51 51 50 52 55 56 55 55 55 55 56 55 55 54 53 51 54 54 53 54 53 55 57 55 58 58 58 61 59 59 61 64 63 64 64 65 65 65 65 66 64 64 65 66 65 65 65 65 66 65 65 64 63 62 62 61 59 56 54 54 56 57 59 59 60 59 58 58 56 61 63 63 61 61 60 59 60 62 62 62 63 63 63
48 50 51 51 52 54 54 55 54 54 54 55 55 53 50 45 43 48 47 52 54 55 54 54 54 54 57 57 60 58 58 59 58 61 61 60 61 63 64 65 64 63 64 64 64 65 65 65 64 64 64 64 64 64 63 62 61 60 60 59 55 54 53 56 57 58 59 59 58 59 57 56 58 61 61 61 60 59 60 61 62 62 62 63 64
48 49 51 50 53 54 55 54 54 55 53 54 53 52 46 42 46 53 45 47 52 56 55 55 55 55 56 55 58 58 58 58 59 59 57 61 60 61 62 61 62 62 61 63 64 65 65 65 65 64 64 63 63 65 65 62 60 58 60 58 57 56 54 55 54 55 57 57 58 58 58 56 56 56 57 60 60 59 59 60 61 61 62 62 63
47 49 49 49 53 54 53 55 54 54 55 54 51 50 50 48 48 47 47 47 49 53 53 53 55 57 56 56 57 54 55 55 58 60 59 57 57 60 61 60 61 61 61 62 63 63 63 63 64 63 64 64 63 64 66 61 59 58 57 57 57 56 57 55 53 53 53 54 56 57 58 57 56 56 56 56 59 60 59 59 61 60 62 62 62
47 48 49 49 54 53 53 56 54 53 55 53 48 46 50 53 50 50 50 49 52 54 52 55 57 54 56 57 55 54 53 54 55 56 58 58 58 57 58 60 60 61 60 59 59 61 62 62 63 63 62 63 64 64 64 60 59 60 59 57 54 53 54 54 56 54 53 53 53 55 56 56 55 54 56 56 56 59 59 59 60 60 61 61 61
48 48 50 51 54 54 54 55 52 54 53 54 52 51 53 52 53 52 53 52 51 56 55 55 53 53 54 54 54 54 54 55 54 53 54 56 56 56 57 58 58 61 60 60 59 59 60 62 62 62 62 61 62 63 64 63 61 61 56 56 55 53 51 52 52 54 54 53 53 53 54 54 54 53 56 56 55 57 59 59 58 60 61 61 61
49 49 52 54 54 54 56 54 53 53 52 56 51 53 54 53 52 53 54 52 54 52 48 47 52 54 54 53 53 53 53 54 54 54 56 54 56 56 57 56 56 58 58 58 59 60 61 61 61 62 62 61 60 62 63 65 62 62 59 58 55 53 52 53 53 53 55 54 53 52 53 54 53 53 52 55 55 56 57 59 59 59 60 60 61
51 51 52 54 54 54 56 54 54 52 53 52 53 53 54 52 52 51 51 51 48 47 47 48 50 51 51 54 54 53 54 52 54 54 54 56 54 56 55 55 55 56 58 58 59 59 60 60 62 61 61 61 60 60 61 63 64 63 62 60 59 56 57 58 54 52 56 55 54 53 52 53 53 53 52 52 54 55 56 57 59 60 60 60 60
52 53 53 53 54 54 56 55 53 51 52 52 53 54 54 54 53 53 53 52 49 49 50 52 51 52 53 53 54 53 53 54 53 53 53 54 55 55 55 56 56 56 57 56 56 57 58 59 60 61 62 62 61 60 60 60 62 63 63 62 62 61 59 57 56 55 53 56 56 54 54 53 53 52 52 51 52 54 55 55 56 57 59 59 60
52 53 53 54 53 54 56 54 54 51 51 52 52 54 54 55 54 53 54 53 49 50 51 52 54 55 52 52 53 55 55 54 54 52 54 53 55 54 55 54 54 54 57 55 54 54 56 56 58 61 61 62 62 61 60 61 61 61 62 61 61 61 61 59 58 57 56 54 53 55 55 55 54 53 53 52 52 52 54 56 54 55 56 59 60
53 53 53 54 53 54 56 54 54 51 50 52 52 54 54 52 50 49 49 52 50 52 53 52 51 53 52 53 54 53 50 51 53 53 52 52 55 53 53 53 54 54 56 55 54 54 54 54 54 56 58 61 61 62 60 60 61 61 61 61 61 61 62 62 61 59 57 55 52 52 53 55 56 55 54 53 53 53 54 55 54 54 55 58 59
53 54 53 53 54 54 55 54 54 50 50 51 51 52 54 52 49 49 50 50 52 51 51 51 51 51 52 52 52 50 52 50 51 53 52 53 53 53 52 53 53 54 56 55 54 54 54 54 55 55 56 56 60 61 61 61 61 61 62 61 60 60 60 60 60 60 58 57 55 53 54 54 53 55 56 54 53 54 55 55 55 54 54 55 57
53 54 53 53 54 54 55 54 53 52 51 50 50 50 54 50 49 49 51 48 51 50 50 50 51 49 52 50 52 51 54 52 53 51 49 52 51 54 52 52 53 54 55 53 53 54 54 55 55 55 55 55 56 58 60 61 61 62 62 62 61 60 60 59 58 58 58 57 56 55 54 53 54 54 56 56 54 53 55 56 55 54 54 55 55